Weather History for Norfolk, NE

Change the Weather History Date:

Tuesday, January 17, 2012

  Actual Average Record
Temperature  
Mean Temperature 11 °F 22 °F  
Max Temperature 19 °F 33 °F 60 °F (1923)
Min Temperature 3 °F 12 °F -25 °F (1930)
Degree Days  
Heating Degree Days 54 43  
Month to date heating degree days 563 731  
Since 1 July heating degree days 3047 3437  
Cooling Degree Days 0 0  
Month to date cooling degree days 0 0  
Year to date cooling degree days 0 0  
Moisture  
Dew Point 5 °F    
Average Humidity 71    
Maximum Humidity 86    
Minimum Humidity 56    
Precipitation  
Precipitation T in 0.02 in 0.55 in (1936)
Month to date precipitation T 0.31  
Year to date precipitation T 0.31  
Snow  
Snow T in 0.20 in - ()
Month to date snowfall T 3.3  
Since 1 July snowfall 8.1 14.2  
Snow Depth T in    
Sea Level Pressure  
Sea Level Pressure 30.23 in    
Wind  
Wind Speed 13 mph (NW)    
Max Wind Speed 29 mph    
Max Gust Speed 35 mph    
Visibility 8 miles    
Events Snow    
T = Trace of Precipitation, MM = Missing Value Source: NWS Daily Summary

Daily Weather History Graph

Daily Weather History Graph

Search for Another Location

Airport:

Trip Planner

Search our weather history database for the weather conditions in past years. The results will help you decide how hot, cold, wet, or windy it might be!

Date:

Astronomy

Jan. 17, 2012 Rise Set
Actual Time 7:54 AM CST 5:25 PM CST
Civil Twilight 7:23 AM CST 5:56 PM CST
Nautical Twilight 6:49 AM CST 6:30 PM CST
Astronomical Twilight 6:16 AM CST 7:03 PM CST
Moon 2:14 AM CST (1/17) 12:19 PM CST (1/17)
Length of Visible Light 10h 32m
Length of Day
9h 30m
Waning Crescent, 35% of the Moon is Illuminated
Jan 17
Waning Crescent
Jan 23
New
Jan 30
First Quarter
Feb 7
Full
Feb 14
Last Quarter

Hourly Weather History & Observations

Time (CST) Temp. Windchill Dew Point Humidity Pressure Visibility Wind Dir Wind Speed Gust Speed Precip Events Conditions
12:07 AM 15.8 °F -1.9 °F 8.6 °F 73% 30.00 in 10.0 mi NNW 21.9 mph 31.1 mph N/A   Overcast
12:56 AM 16.0 °F 0.1 °F 9.0 °F 74% 30.07 in 10.0 mi NNW 17.3 mph - N/A   Overcast
1:12 AM 15.8 °F -1.1 °F 8.6 °F 73% 30.00 in 7.0 mi NNW 19.6 mph 29.9 mph 0.00 in Snow Light Snow
1:56 AM 15.1 °F -2.5 °F 9.0 °F 77% 30.12 in 3.0 mi NW 20.7 mph - 0.00 in Snow Light Snow
2:07 AM 14.0 °F -3.9 °F 8.6 °F 79% 30.04 in 2.5 mi NW 20.7 mph 31.1 mph 0.00 in Snow Light Snow
2:30 AM 14.0 °F -5.1 °F 8.6 °F 79% 30.07 in 3.0 mi NNW 24.2 mph 31.1 mph 0.00 in Snow Light Snow
2:37 AM 14.0 °F -4.3 °F 8.6 °F 79% 30.08 in 2.5 mi NW 21.9 mph 29.9 mph 0.00 in Snow Light Snow
2:56 AM 14.0 °F -4.7 °F 8.1 °F 77% 30.17 in 2.5 mi NW 23.0 mph 29.9 mph 0.00 in Snow Light Snow
3:16 AM 14.0 °F -5.1 °F 8.6 °F 79% 30.08 in 3.0 mi NNW 24.2 mph 29.9 mph 0.00 in Snow Light Snow
3:56 AM 12.9 °F -4.9 °F 7.0 °F 77% 30.19 in 6.0 mi NW 19.6 mph - 0.00 in Snow Light Snow
4:09 AM 12.2 °F -5.8 °F 6.8 °F 79% 30.11 in 9.0 mi NNW 19.6 mph 32.2 mph 0.00 in   Overcast
4:56 AM 12.0 °F -5.1 °F 6.1 °F 77% 30.23 in 9.0 mi NW 17.3 mph 31.1 mph 0.00 in Snow Light Snow
5:56 AM 12.0 °F -6.5 °F 5.0 °F 73% 30.25 in 4.0 mi NNW 20.7 mph 28.8 mph 0.00 in Snow Light Snow
6:56 AM 10.9 °F -8.3 °F 3.9 °F 73% 30.30 in 9.0 mi NNW 21.9 mph 27.6 mph 0.00 in   Overcast
7:56 AM 10.0 °F -7.1 °F 3.0 °F 73% 30.34 in 10.0 mi NW 16.1 mph 25.3 mph N/A   Overcast
8:48 AM 10.4 °F -6.6 °F 3.2 °F 73% 30.27 in 4.0 mi NW 16.1 mph - N/A   Haze
8:56 AM 10.9 °F -6.5 °F 3.9 °F 73% 30.38 in 5.0 mi NW 17.3 mph - N/A   Haze
9:29 AM 10.4 °F -7.7 °F 3.2 °F 73% 30.28 in 10.0 mi NW 18.4 mph - N/A   Overcast
9:56 AM 12.9 °F -4.4 °F 3.9 °F 67% 30.38 in 10.0 mi NW 18.4 mph - N/A   Overcast
10:14 AM 12.2 °F -6.3 °F 3.2 °F 67% 30.29 in 10.0 mi NW 20.7 mph - N/A   Scattered Clouds
1:56 PM 17.1 °F 3.0 °F 6.1 °F 62% 30.38 in 10.0 mi NW 13.8 mph - N/A   Partly Cloudy
2:56 PM 18.0 °F 8.7 °F 6.1 °F 60% 30.37 in 10.0 mi NW 6.9 mph - N/A   Clear
3:56 PM 19.0 °F 10.0 °F 6.1 °F 57% 30.38 in 10.0 mi WNW 6.9 mph - N/A   Clear
5:56 PM 15.1 °F - 5.0 °F 64% 30.36 in 10.0 mi Calm Calm - N/A   Clear
7:56 PM 10.0 °F -0.9 °F 3.0 °F 73% 30.36 in 10.0 mi SSE 6.9 mph - N/A   Clear
8:56 PM 5.0 °F -5.6 °F -0.0 °F 80% 30.33 in 10.0 mi ESE 5.8 mph - N/A   Clear
9:56 PM 7.0 °F -3.3 °F 1.0 °F 77% 30.33 in 10.0 mi SE 5.8 mph - N/A   Clear
10:56 PM 3.9 °F -5.3 °F -0.9 °F 80% 30.30 in 10.0 mi ESE 4.6 mph - N/A   Clear
11:56 PM 14.0 °F 1.2 °F 6.1 °F 71% 30.25 in 10.0 mi South 10.4 mph - N/A   Clear